"Pseudo-MPEC" for CML6QFZ

Created 2025 Jan 14 16:31:04 UT using Find_Orb

Click here for an explanation of pseudo-MPECs

 
 Astrometry: 
     CML6QFZ*0C2024 12 31.34811309 01 04.069+58 26 21.55   ~152H 22.50GVNEOCPG96
     CML6QFZ 0C2024 12 31.35337509 01 04.901+58 26 17.59   ~152H 21.33GVNEOCPG96
     CML6QFZ 0C2024 12 31.35863309 01 05.869+58 26 14.32   ~152H 22.51GVNEOCPG96
     CML6QFZ 0C2024 12 31.36386909 01 07.201+58 26 10.00   ~152H 21.01GVNEOCPG96

Station data:
(G96) Mt. Lemmon Survey  (N32.442729 W110.788720)  US/Arizona.  Observer A.
   Zooniverse.  + 10K CCD.

Orbital elements:  CML6QFZ
   Perihelion 2024 Dec 5.86346 +/- 34.6 TT = 20:43:23 (JD 2460650.36346)
Epoch 2024 Dec 31.0 TT = JDT 2460675.5   Earth MOID: 0.0583      AutoNEOCP
M   8.51981035 +/- 23               (J2000 ecliptic)
n   0.33894126 +/- 0.226            Peri.    7.53136 +/- 110
a   2.03729108 +/- 0.904            Node    66.26847 +/- 54
e   0.4881485 +/- 0.179             Incl.    7.70648 +/- 6
P   2.90790                H 24.78  G  0.15   U 11.7  SR
q 1.04279032 +/- 0.158    Q 3.03179184 +/- 1.78
From 4 observations 2024 Dec. 31 (22.7 min); mean residual 0".74
Residuals in arcseconds: 
241231 G96  .91+  .02+    241231 G96  1.3-  .33+    
241231 G96  .73-  .20-    241231 G96  1.1+  .16-    

Ephemerides (geocentric):
Date (UTC) HH   RA             Dec           delta  r     elong  mag " sig PA
---- --------  ------------   ------------  ------ ------ -----  --- --------
2025 01 14 17  09 28 37.873   +54 39 59.96  .19253 1.1403 141.3 22.9  57d  37
2025 01 14 18  09 28 39.204   +54 39 17.43  .19272 1.1405 141.3 22.9  57d  37
2025 01 14 19  09 28 40.522   +54 38 34.90  .19290 1.1407 141.4 22.9  57d  37
2025 01 14 20  09 28 41.827   +54 37 52.34  .19309 1.1408 141.4 22.9  57d  37
2025 01 14 21  09 28 43.120   +54 37 09.78  .19327 1.1410 141.4 22.9  57d  38
2025 01 14 22  09 28 44.400   +54 36 27.20  .19346 1.1412 141.4 22.9  57d  38
2025 01 14 23  09 28 45.667   +54 35 44.60  .19365 1.1414 141.4 22.9  57d  38
2025 01 15 00  09 28 46.922   +54 35 01.99  .19383 1.1416 141.4 22.9  57d  38
2025 01 15 01  09 28 48.165   +54 34 19.37  .19402 1.1418 141.5 22.9  57d  38
2025 01 15 02  09 28 49.395   +54 33 36.73  .19420 1.1420 141.5 22.9  57d  38
2025 01 15 03  09 28 50.612   +54 32 54.08  .19439 1.1422 141.5 22.9  57d  38
2025 01 15 04  09 28 51.818   +54 32 11.41  .19458 1.1424 141.5 22.9  57d  38
2025 01 15 05  09 28 53.011   +54 31 28.73  .19476 1.1426 141.5 22.9  57d  38
2025 01 15 06  09 28 54.192   +54 30 46.03  .19495 1.1427 141.5 22.9  57d  38
2025 01 15 07  09 28 55.360   +54 30 03.32  .19514 1.1429 141.6 22.9  57d  38
2025 01 15 08  09 28 56.516   +54 29 20.59  .19532 1.1431 141.6 22.9  57d  38
2025 01 15 09  09 28 57.661   +54 28 37.85  .19551 1.1433 141.6 22.9  57d  38
2025 01 15 10  09 28 58.793   +54 27 55.10  .19570 1.1435 141.6 22.9  57d  38
2025 01 15 11  09 28 59.913   +54 27 12.33  .19588 1.1437 141.6 22.9  57d  38
2025 01 15 12  09 29 01.021   +54 26 29.55  .19607 1.1439 141.6 22.9  57d  38
2025 01 15 13  09 29 02.118   +54 25 46.75  .19626 1.1441 141.7 22.9  57d  38
2025 01 15 14  09 29 03.202   +54 25 03.94  .19644 1.1443 141.7 22.9  57d  38
2025 01 15 15  09 29 04.275   +54 24 21.11  .19663 1.1445 141.7 22.9  57d  38
2025 01 15 16  09 29 05.336   +54 23 38.27  .19682 1.1447 141.7 22.9  57d  38
2025 01 15 17  09 29 06.385   +54 22 55.41  .19701 1.1449 141.7 22.9  58d  38
2025 01 15 18  09 29 07.422   +54 22 12.54  .19719 1.1451 141.7 22.9  58d  38
2025 01 15 19  09 29 08.447   +54 21 29.65  .19738 1.1452 141.8 22.9  58d  38
2025 01 15 20  09 29 09.461   +54 20 46.75  .19757 1.1454 141.8 22.9  58d  38
2025 01 15 21  09 29 10.464   +54 20 03.83  .19776 1.1456 141.8 22.9  58d  38
2025 01 15 22  09 29 11.455   +54 19 20.90  .19795 1.1458 141.8 22.9  58d  38
2025 01 15 23  09 29 12.434   +54 18 37.96  .19813 1.1460 141.8 22.9  58d  38
2025 01 16 00  09 29 13.402   +54 17 55.00  .19832 1.1462 141.9 22.9  58d  38
2025 01 16 01  09 29 14.359   +54 17 12.02  .19851 1.1464 141.9 22.9  58d  38
2025 01 16 02  09 29 15.304   +54 16 29.03  .19870 1.1466 141.9 22.9  58d  38
2025 01 16 03  09 29 16.238   +54 15 46.03  .19889 1.1468 141.9 22.9  58d  38
2025 01 16 04  09 29 17.160   +54 15 03.01  .19908 1.1470 141.9 22.9  58d  38
2025 01 16 05  09 29 18.072   +54 14 19.97  .19926 1.1472 141.9 22.9  58d  38
2025 01 16 06  09 29 18.972   +54 13 36.92  .19945 1.1474 142.0 22.9  58d  38
2025 01 16 07  09 29 19.861   +54 12 53.86  .19964 1.1476 142.0 22.9  58d  38
2025 01 16 08  09 29 20.739   +54 12 10.78  .19983 1.1478 142.0 22.9  58d  38
2025 01 16 09  09 29 21.606   +54 11 27.69  .20002 1.1480 142.0 22.9  58d  38
2025 01 16 10  09 29 22.461   +54 10 44.58  .20021 1.1481 142.0 22.9  58d  38
2025 01 16 11  09 29 23.306   +54 10 01.45  .20040 1.1483 142.0 22.9  58d  38
2025 01 16 12  09 29 24.140   +54 09 18.31  .20059 1.1485 142.1 22.9  58d  38
2025 01 16 13  09 29 24.963   +54 08 35.16  .20078 1.1487 142.1 22.9  58d  38
2025 01 16 14  09 29 25.775   +54 07 51.99  .20097 1.1489 142.1 23.0  58d  38
2025 01 16 15  09 29 26.577   +54 07 08.81  .20116 1.1491 142.1 23.0  58d  38
2025 01 16 16  09 29 27.367   +54 06 25.61  .20134 1.1493 142.1 23.0  58d  38